Location: Richterswil
(47.2055°N, 8.7071°E)
Time: 07:24:17
(UTC+00:00)

Cosmos 2366 rocket - Pass Details

Date: 07 June 2020
Orbit: 956 x 997 km, 82.9° (Epoch: 05 July)

Event Time Altitude Azimuth Distance (km) Brightness Sun altitude
Exits shadow 02:17:31 - 181° (S) 3,315 6.3 -9.9°
Reaches altitude 10° 02:19:06 10° 180° (S) 2,718 5.9 -9.7°
Maximum altitude 02:25:19 76° 96° (E) 1,017 4.2 -9.0°
Drops below altitude 10° 02:31:39 10° 12° (NNE) 2,763 7.4 -8.3°
Sets 02:34:12 0° 11° (N) 3,720 8.1 -8.0°
